GW6443 Weather Reports


time (UTC)temp
C
wind
direction
speed
KPH
gust
KPH
rain 1hr
cm
rain 24hr
cm
rain mn
cm
humidity
%
barometer
mb
20260507164314 13 148 1.6 16.1 0.00 0.00 0.00 39 1009.7
20260507163811 15 233 4.8 11.3 0.00 0.00 0.00 37 1009.6
20260507163309 14 206 4.8 14.5 0.00 0.00 0.00 42 1010.1
20260507162804 14 313 8.0 9.7 0.00 0.00 0.00 46 1009.9
20260507162300 14 279 14.5 24.1 0.00 0.00 0.00 38 1009.7
20260507161758 13 221 3.2 16.1 0.00 0.00 0.00 40 1009.9
20260507161254 13 332 3.2 17.7 0.00 0.00 0.00 39 1010.1
20260507160750 15 296 6.4 9.7 0.00 0.00 0.00 36 1010.2
20260507160246 14 309 3.2 11.3 0.00 0.00 0.00 40 1010.1
20260507155743 15 328 9.7 9.7 0.00 0.00 0.00 41 1010.0
20260507155238 14 29 4.8 9.7 0.00 0.00 0.00 38 1010.0
20260507154735 13 150 3.2 16.1 0.00 0.00 0.00 38 1010.2
20260507154233 13 187 0.0 8.0 0.00 0.00 0.00 37 1010.2
20260507153729 13 255 3.2 11.3 0.00 0.00 0.00 37 1010.1
20260507153226 13 247 8.0 14.5 0.00 0.00 0.00 39 1010.3
20260507152722 13 241 6.4 9.7 0.00 0.00 0.00 44 1010.3
20260507152219 13 241 6.4 14.5 0.00 0.00 0.00 41 1010.6
20260507151715 13 251 6.4 16.1 0.00 0.00 0.00 41 1010.4
20260507151211 13 130 1.6 6.4 0.00 0.00 0.00 42 1010.7
20260507150708 13 21 4.8 17.7 0.00 0.00 0.00 39 1011.0
20260507150205 13 291 9.7 14.5 0.00 0.00 0.00 39 1010.8
20260507145701 13 147 3.2 20.9 0.00 0.00 0.00 38 1011.1
20260507145158 13 300 11.3 16.1 0.00 0.00 0.00 40 1011.2
20260507144654 13 13 3.2 12.9 0.00 0.00 0.00 38 1011.1
20260507144153 12 107 4.8 9.7 0.00 0.00 0.00 37 1011.0
20260507143649 13 234 8.0 25.7 0.00 0.00 0.00 39 1011.3
20260507143146 12 164 4.8 11.3 0.00 0.00 0.00 45 1011.2
20260507142642 12 319 6.4 9.7 0.00 0.00 0.00 42 1011.2
20260507142139 12 81 1.6 6.4 0.00 0.00 0.00 42 1011.3
20260507141635 12 316 6.4 12.9 0.00 0.00 0.00 44 1011.5
20260507141132 12 346 4.8 16.1 0.00 0.00 0.00 41 1011.5
20260507140628 12 35 6.4 12.9 0.00 0.00 0.00 43 1011.6
20260507140126 12 26 1.6 9.7 0.00 0.00 0.00 44 1011.8
20260507135623 11 282 6.4 9.7 0.00 0.00 0.00 46 1011.6
20260507135120 11 249 8.0 8.0 0.00 0.00 0.00 45 1011.6
20260507134616 11 262 3.2 8.0 0.00 0.00 0.00 48 1011.7
20260507134112 11 273 4.8 11.3 0.00 0.00 0.00 52 1011.8
20260507133608 10 148 3.2 9.7 0.00 0.00 0.00 49 1011.7
20260507133106 10 51 3.2 3.2 0.00 0.00 0.00 49 1011.8
20260507132603 10 263 8.0 8.0 0.00 0.00 0.00 52 1011.7
20260507132059 9 45 4.8 6.4 0.00 0.00 0.00 57 1011.8
20260507131556 9 119 8.0 9.7 0.00 0.00 0.00 61 1011.9
20260507131054 8 180 0.0 8.0 0.00 0.00 0.00 58 1011.8
20260507130550 8 78 6.4 8.0 0.00 0.00 0.00 61 1012.1
20260507130049 8 50 6.4 9.7 0.00 0.00 0.00 64 1012.0
20260507125547 8 106 4.8 9.7 0.00 0.00 0.00 63 1012.1
20260507125044 8 115 8.0 8.0 0.00 0.00 0.00 67 1012.2
20260507124540 8 120 8.0 9.7 0.00 0.00 0.00 66 1012.4
20260507124038 7 118 6.4 12.9 0.00 0.00 0.00 65 1012.3
20260507123536 7 137 3.2 11.3 0.00 0.00 0.00 67 1012.4
20260507123032 7 114 9.7 12.9 0.00 0.00 0.00 66 1012.2
20260507122528 7 116 6.4 9.7 0.00 0.00 0.00 67 1012.3
20260507122024 7 99 8.0 8.0 0.00 0.00 0.00 69 1012.2
20260507121520 7 120 8.0 11.3 0.00 0.00 0.00 68 1012.1
20260507121015 7 116 4.8 9.7 0.00 0.00 0.00 68 1012.1
20260507120512 6 130 6.4 8.0 0.00 0.00 0.00 70 1011.9
20260507120009 6 118 6.4 9.7 0.00 0.00 0.00 72 1012.0
20260507115505 6 101 4.8 8.0 0.00 0.00 0.00 72 1012.1
20260507115001 6 120 8.0 9.7 0.00 0.00 0.00 71 1012.1
20260507114457 6 96 4.8 6.4 0.00 0.00 0.00 75 1012.1
20260507113955 6 92 4.8 9.7 0.00 0.00 0.00 75 1012.2
20260507113452 6 121 4.8 6.4 0.00 0.00 0.00 73 1012.1
20260507112949 5 27 3.2 3.2 0.00 0.00 0.00 74 1012.0
20260507112446 5 216 0.0 3.2 0.00 0.00 0.00 76 1011.8
20260507111943 5 76 0.0 3.2 0.00 0.00 0.00 76 1012.0
20260507111441 5 359 4.8 6.4 0.00 0.00 0.00 78 1011.9
20260507110936 5 356 3.2 3.2 0.00 0.00 0.00 80 1011.6
20260507110433 4 240 3.2 4.8 0.00 0.00 0.00 82 1011.6
20260507105929 4 160 3.2 6.4 0.00 0.00 0.00 82 1011.7
20260507105427 4 275 3.2 4.8 0.00 0.00 0.00 82 1011.5
20260507104923 4 260 6.4 8.0 0.00 0.00 0.00 83 1011.6
20260507104420 3 137 1.6 4.8 0.00 0.00 0.00 84 1011.4
20260507103915 3 215 3.2 6.4 0.00 0.00 0.00 86 1011.4
20260507103413 3 181 3.2 6.4 0.00 0.00 0.00 86 1011.5
20260507102909 3 254 3.2 8.0 0.00 0.00 0.00 87 1011.3
20260507102406 3 255 6.4 6.4 0.00 0.00 0.00 89 1011.1
20260507101902 2 194 1.6 4.8 0.00 0.00 0.00 89 1011.1
20260507101402 2 201 1.6 3.2 0.00 0.00 0.00 89 1011.3
20260507100859 3 183 3.2 4.8 0.00 0.00 0.00 88 1011.4
20260507100357 3 260 4.8 6.4 0.00 0.00 0.00 88 1011.2
20260507095855 3 272 3.2 3.2 0.00 0.00 0.00 89 1011.4
20260507095351 3 183 1.6 3.2 0.00 0.00 0.00 88 1011.5
20260507094849 3 278 0.0 3.2 0.00 0.00 0.00 89 1011.3
20260507094345 3 323 0.0 3.2 0.00 0.00 0.00 89 1011.4
20260507093842 3 207 0.0 3.2 0.00 0.00 0.00 89 1011.2
20260507093340 3 66 0.0 3.2 0.00 0.00 0.00 90 1011.1
20260507092838 3 260 1.6 3.2 0.00 0.00 0.00 90 1011.3
20260507092334 3 99 1.6 3.2 0.00 0.00 0.00 90 1011.1
20260507091831 3 29 0.0 1.6 0.00 0.00 0.00 90 1011.2
20260507091327 3 13 0.0 3.2 0.00 0.00 0.00 89 1011.3
20260507090823 3 225 1.6 1.6 0.00 0.00 0.00 89 1011.3
20260507090319 3 218 0.0 1.6 0.00 0.00 0.00 88 1011.1
20260507085816 3 248 3.2 3.2 0.00 0.00 0.00 88 1011.1
20260507085313 4 206 1.6 3.2 0.00 0.00 0.00 87 1010.8
20260507084811 4 251 0.0 3.2 0.00 0.00 0.00 87 1011.0
20260507084307 4 252 3.2 3.2 0.00 0.00 0.00 86 1011.2
20260507083804 4 169 1.6 3.2 0.00 0.00 0.00 87 1011.0
20260507083301 4 202 0.0 3.2 0.00 0.00 0.00 86 1011.2
20260507082757 5 206 3.2 3.2 0.00 0.00 0.00 85 1011.1
20260507082253 5 235 1.6 3.2 0.00 0.00 0.00 84 1011.1
20260507081750 5 282 0.0 1.6 0.00 0.00 0.00 84 1011.2
20260507081246 5 147 0.0 1.6 0.00 0.00 0.00 83 1011.3
20260507080742 5 269 0.0 3.2 0.00 0.00 0.00 82 1011.3
20260507080239 6 246 1.6 1.6 0.00 0.00 0.00 81 1011.4
20260507075734 6 289 0.0 3.2 0.00 0.00 0.00 81 1011.4
20260507075231 6 246 0.0 3.2 0.00 0.00 0.00 81 1011.5
20260507074727 6 143 3.2 3.2 0.00 0.00 0.00 82 1011.4
20260507074225 6 160 0.0 3.2 0.00 0.00 0.00 81 1011.6
20260507073722 6 142 0.0 3.2 0.00 0.00 0.00 82 1011.4
20260507073218 6 147 1.6 3.2 0.00 0.00 0.00 83 1011.2
20260507072716 6 151 3.2 3.2 0.00 0.00 0.00 84 1011.3
20260507072213 6 124 3.2 3.2 0.00 0.00 0.00 82 1011.3
20260507071711 6 228 0.0 3.2 0.00 0.00 0.00 82 1011.2
20260507071207 6 21 1.6 3.2 0.00 0.00 0.00 82 1011.4
20260507070704 6 98 1.6 3.2 0.00 0.00 0.00 79 1011.4
20260507070201 6 139 0.0 0.0 0.00 0.00 0.00 79 1011.5
20260507065657 6 49 0.0 3.2 0.00 0.00 0.00 78 1011.3
20260507065154 6 131 1.6 3.2 0.00 0.00 0.00 76 1011.5
20260507064652 6 148 0.0 3.2 0.00 0.00 0.00 79 1011.4
20260507064150 6 121 1.6 3.2 0.00 0.00 0.00 79 1011.4
20260507063647 6 121 3.2 3.2 0.00 0.00 0.00 79 1011.5
20260507063144 6 109 1.6 3.2 0.00 0.00 0.00 78 1011.5
20260507062641 6 111 3.2 3.2 0.00 0.00 0.00 77 1011.5
20260507062138 7 122 3.2 3.2 0.00 0.00 0.00 79 1011.6
20260507061636 7 144 3.2 3.2 0.00 0.00 0.00 79 1011.4
20260507061134 7 111 1.6 3.2 0.00 0.00 0.00 79 1011.6
20260507060632 7 114 1.6 1.6 0.00 0.00 0.00 78 1011.7
20260507060128 7 269 0.0 3.2 0.00 0.00 0.00 78 1011.6
20260507055624 7 218 0.0 3.2 0.00 0.00 0.00 77 1011.6
20260507055120 7 188 0.0 1.6 0.00 0.00 0.00 76 1011.6
20260507054615 7 103 1.6 3.2 0.00 0.00 0.00 74 1011.8
20260507054113 7 166 0.0 1.6 0.00 0.00 0.00 75 1011.6
20260507053610 7 243 0.0 1.6 0.00 0.00 0.00 76 1011.6
20260507053109 7 89 0.0 3.2 0.00 0.00 0.00 76 1011.7
20260507052607 7 117 1.6 4.8 0.00 0.00 0.00 75 1011.7
20260507052103 7 156 0.0 3.2 0.00 0.00 0.00 76 1011.7
20260507051600 7 143 3.2 3.2 0.00 0.00 0.00 74 1011.6
20260507051057 7 130 3.2 3.2 0.00 0.00 0.00 73 1011.6
20260507050554 8 128 1.6 3.2 0.00 0.00 0.00 74 1011.6
20260507050050 8 87 3.2 4.8 0.00 0.00 0.00 71 1011.7
20260507045547 8 101 1.6 3.2 0.00 0.00 0.00 67 1012.0
20260507045044 8 131 0.0 3.2 0.00 0.00 0.00 69 1011.7
20260507044541 8 157 1.6 3.2 0.00 0.00 0.00 69 1011.8
20260507044038 8 123 3.2 3.2 0.00 0.00 0.00 69 1011.7
20260507043533 8 117 3.2 3.2 0.00 0.00 0.00 68 1011.9
20260507043031 8 130 1.6 3.2 0.00 0.00 0.00 70 1011.6
20260507042527 8 103 0.0 3.2 0.00 0.00 0.00 65 1011.7
20260507042022 8 115 1.6 3.2 0.00 0.00 0.00 64 1011.9
20260507041520 8 106 3.2 3.2 0.00 0.00 0.00 66 1011.9
20260507041017 8 149 1.6 3.2 0.00 0.00 0.00 69 1011.9
20260507040513 8 136 0.0 3.2 0.00 0.00 0.00 69 1012.0
20260507040009 8 132 0.0 3.2 0.00 0.33 0.33 71 1011.8
20260507035505 8 159 1.6 3.2 0.00 0.33 0.33 75 1012.0
20260507035002 9 140 3.2 3.2 0.00 0.33 0.33 72 1011.8
20260507034459 9 97 3.2 3.2 0.00 0.33 0.33 65 1011.3
20260507033957 9 83 1.6 3.2 0.00 0.33 0.33 64 1011.3
20260507033455 10 41 3.2 6.4 0.00 0.33 0.33 61 1011.4
20260507032952 10 49 3.2 6.4 0.00 0.33 0.33 63 1011.4
20260507032449 10 64 3.2 8.0 0.00 0.33 0.33 61 1011.5
20260507031944 10 41 3.2 4.8 0.00 0.33 0.33 62 1011.5
20260507031441 10 33 1.6 6.4 0.00 0.33 0.33 64 1011.7
20260507030938 10 89 1.6 6.4 0.00 0.33 0.33 65 1011.5
20260507030435 10 17 4.8 14.5 0.00 0.33 0.33 64 1011.4
20260507025932 10 344 3.2 9.7 0.00 0.33 0.33 67 1011.7
20260507025429 10 124 0.0 3.2 0.00 0.33 0.33 72 1011.6
20260507024927 10 26 8.0 8.0 0.00 0.33 0.33 72 1011.4
20260507024424 10 59 4.8 4.8 0.00 0.33 0.33 74 1011.2
20260507023920 10 51 8.0 11.3 0.00 0.33 0.33 72 1010.8
20260507023417 10 23 1.6 4.8 0.00 0.33 0.33 74 1011.0
20260507022914 10 20 0.0 6.4 0.00 0.33 0.33 73 1011.0
20260507022411 10 60 4.8 6.4 0.00 0.33 0.33 73 1011.0
20260507021907 10 48 3.2 4.8 0.00 0.33 0.33 75 1010.7
20260507021402 10 111 1.6 3.2 0.00 0.33 0.33 75 1010.4
20260507020900 10 55 4.8 4.8 0.00 0.33 0.33 75 1010.4
20260507020357 10 86 1.6 3.2 0.00 0.33 0.33 75 1010.6
20260507015854 10 38 1.6 3.2 0.00 0.33 0.33 76 1010.5
20260507015352 10 228 0.0 6.4 0.00 0.33 0.33 74 1010.4
20260507014848 10 275 6.4 8.0 0.00 0.33 0.33 75 1010.5
20260507014345 10 83 0.0 3.2 0.00 0.33 0.33 78 1010.5
20260507013841 10 50 0.0 3.2 0.00 0.33 0.33 78 1010.6
20260507013338 10 46 3.2 8.0 0.00 0.33 0.33 78 1010.5
20260507012836 10 54 4.8 6.4 0.00 0.33 0.33 82 1010.8
20260507012331 10 20 6.4 6.4 0.00 0.33 0.33 85 1011.1
20260507011829 10 99 3.2 4.8 0.00 0.33 0.33 85 1011.0
20260507011326 10 112 3.2 3.2 0.00 0.33 0.33 86 1010.7
20260507010825 10 95 0.0 3.2 0.00 0.33 0.33 86 1010.8
20260507010321 10 81 0.0 3.2 0.00 0.33 0.33 85 1010.8
20260507005819 10 95 3.2 3.2 0.00 0.33 0.33 85 1011.2
20260507005316 10 101 3.2 3.2 0.00 0.33 0.33 85 1011.1
20260507004812 10 95 4.8 4.8 0.00 0.33 0.33 85 1011.2
20260507004310 10 119 4.8 8.0 0.00 0.33 0.33 83 1011.2
20260507003806 10 121 3.2 3.2 0.00 0.33 0.33 83 1011.1
20260507003301 10 97 3.2 4.8 0.00 0.33 0.33 79 1010.8
20260507002757 10 92 0.0 1.6 0.00 0.33 0.33 78 1010.5
20260507002253 11 120 1.6 3.2 0.00 0.33 0.33 79 1010.7
20260507001751 11 114 3.2 3.2 0.00 0.33 0.33 78 1011.1
20260507001248 11 106 3.2 4.8 0.00 0.33 0.33 78 1010.8
20260507000744 11 176 1.6 6.4 0.00 0.33 0.33 77 1010.7
20260507000240 11 124 6.4 6.4 0.00 0.33 0.33 79 1010.5
20260506235737 11 156 3.2 3.2 0.00 0.33 0.33 81 1010.3
20260506235232 11 121 1.6 3.2 0.00 0.33 0.33 80 1010.2
20260506234729 11 66 3.2 6.4 0.00 0.33 0.33 81 1010.2
20260506234227 11 118 3.2 3.2 0.00 0.33 0.33 83 1010.2
20260506233724 11 104 3.2 4.8 0.00 0.33 0.33 81 1010.0
20260506233220 11 100 3.2 4.8 0.00 0.33 0.33 80 1009.9
20260506232717 11 88 3.2 4.8 0.00 0.33 0.33 78 1009.9
20260506232212 11 129 3.2 4.8 0.00 0.33 0.33 78 1009.8
20260506231709 11 46 6.4 8.0 0.00 0.33 0.33 79 1009.6
20260506231208 11 70 1.6 1.6 0.00 0.33 0.33 79 1009.7
20260506230704 11 108 0.0 3.2 0.00 0.33 0.33 79 1009.7
20260506230201 11 23 9.7 9.7 0.00 0.33 0.33 79 1009.8
20260506225657 11 297 3.2 6.4 0.00 0.33 0.33 79 1009.6
20260506225154 11 43 4.8 8.0 0.00 0.33 0.33 78 1009.4
20260506224651 11 232 4.8 14.5 0.00 0.33 0.33 78 1009.6
20260506224148 11 297 8.0 8.0 0.00 0.33 0.33 78 1009.8
20260506223644 11 16 4.8 14.5 0.00 0.33 0.33 78 1009.8
20260506223140 11 191 3.2 9.7 0.00 0.33 0.33 78 1009.5
20260506222637 11 10 3.2 8.0 0.00 0.33 0.33 79 1009.5
20260506222133 11 115 1.6 8.0 0.00 0.33 0.33 81 1009.5
20260506221631 12 180 1.6 6.4 0.00 0.33 0.33 80 1009.5
20260506221129 12 4 6.4 9.7 0.00 0.33 0.33 79 1009.2
20260506220625 12 73 0.0 6.4 0.00 0.33 0.33 79 1009.5
20260506220120 12 66 8.0 16.1 0.00 0.33 0.33 79 1009.1
20260506215618 12 359 3.2 6.4 0.00 0.33 0.33 79 1009.1
20260506215113 12 287 6.4 6.4 0.00 0.33 0.33 79 1009.2
20260506214610 12 50 0.0 6.4 0.00 0.33 0.33 79 1009.1
20260506214108 12 183 3.2 9.7 0.00 0.33 0.33 80 1009.0
20260506213606 12 257 3.2 9.7 0.00 0.33 0.33 80 1008.8
20260506213102 12 41 9.7 16.1 0.00 0.33 0.33 79 1008.6
20260506212559 12 250 8.0 8.0 0.00 0.33 0.33 80 1008.6
20260506212054 12 38 14.5 16.1 0.00 0.33 0.33 80 1008.4
20260506211550 12 220 0.0 9.7 0.00 0.33 0.33 81 1008.6
20260506211048 12 328 3.2 3.2 0.00 0.33 0.33 82 1008.5
20260506210544 12 159 3.2 6.4 0.00 0.33 0.33 81 1008.5
20260506210041 12 87 1.6 3.2 0.00 0.33 0.33 82 1008.1
20260506205537 12 114 1.6 6.4 0.00 0.33 0.33 83 1008.4
20260506205032 12 229 1.6 11.3 0.00 0.33 0.33 84 1008.1
20260506204531 12 208 1.6 6.4 0.00 0.33 0.33 84 1008.1
20260506204028 12 335 3.2 6.4 0.00 0.33 0.33 84 1008.0
20260506203526 11 19 4.8 8.0 0.00 0.33 0.33 85 1008.0
20260506203022 11 235 4.8 6.4 0.00 0.33 0.33 86 1008.3
20260506202520 12 15 4.8 16.1 0.00 0.33 0.33 85 1008.3
20260506202016 12 198 1.6 8.0 0.00 0.33 0.33 86 1008.0
20260506201514 12 275 3.2 8.0 0.00 0.33 0.33 86 1008.0
20260506201010 12 358 6.4 9.7 0.00 0.33 0.33 86 1008.0
20260506200506 12 68 3.2 6.4 0.00 0.33 0.33 85 1008.0
20260506200003 12 173 1.6 9.7 0.00 0.33 0.33 85 1008.0
20260506195500 12 287 3.2 14.5 0.00 0.33 0.33 84 1007.9
20260506194956 12 271 1.6 4.8 0.00 0.33 0.33 85 1007.9
20260506194454 12 115 3.2 9.7 0.00 0.33 0.33 84 1007.9
20260506193950 12 291 0.0 4.8 0.00 0.33 0.33 85 1007.9
20260506193448 12 243 3.2 4.8 0.00 0.33 0.33 85 1007.7
20260506192944 12 235 3.2 4.8 0.00 0.33 0.33 85 1007.8
20260506192441 12 287 4.8 4.8 0.00 0.33 0.33 86 1007.5
20260506191938 12 1 1.6 8.0 0.00 0.33 0.33 86 1007.6
20260506191434 12 224 6.4 11.3 0.00 0.33 0.33 86 1007.6
20260506190931 13 238 9.7 16.1 0.00 0.33 0.33 85 1007.6
20260506190428 13 106 4.8 6.4 0.00 0.33 0.33 85 1007.5
20260506185925 13 204 8.0 11.3 0.00 0.33 0.33 84 1007.6
20260506185422 13 214 3.2 8.0 0.00 0.33 0.33 83 1007.3
20260506184919 13 181 6.4 14.5 0.00 0.33 0.33 84 1007.3
20260506184416 13 176 3.2 8.0 0.00 0.33 0.33 84 1007.2
20260506183913 13 186 6.4 16.1 0.00 0.33 0.33 84 1007.1
20260506183408 13 199 4.8 9.7 0.00 0.33 0.33 86 1007.0
20260506182906 14 287 11.3 14.5 0.00 0.33 0.33 86 1006.9
20260506182403 15 211 0.0 8.0 0.00 0.33 0.33 83 1006.7
20260506181900 15 290 3.2 8.0 0.00 0.33 0.33 83 1006.6
20260506181358 15 132 1.6 6.4 0.00 0.33 0.33 86 1006.8
20260506180855 14 111 8.0 8.0 0.00 0.33 0.33 86 1006.7
20260506180351 14 110 4.8 4.8 0.00 0.33 0.33 87 1007.0
20260506175847 14 110 3.2 8.0 0.00 0.33 0.33 85 1006.9
20260506175344 15 96 3.2 3.2 0.00 0.33 0.33 86 1006.9
20260506174841 15 345 0.0 3.2 0.00 0.33 0.33 83 1006.8
20260506174339 15 117 3.2 4.8 0.00 0.33 0.33 83 1006.8
20260506173836 15 184 4.8 11.3 0.00 0.33 0.33 82 1006.9
20260506173333 15 193 6.4 6.4 0.00 0.33 0.33 84 1006.7
20260506172830 15 131 3.2 9.7 0.00 0.33 0.33 84 1006.6
20260506172326 15 215 3.2 4.8 0.00 0.33 0.33 85 1006.6
20260506171824 15 314 6.4 8.0 0.00 0.33 0.33 86 1006.6
20260506171321 15 272 8.0 9.7 0.00 0.33 0.33 86 1006.4
20260506170819 15 243 6.4 14.5 0.00 0.33 0.33 87 1006.5
20260506170314 15 296 4.8 9.7 0.05 0.33 0.33 90 1006.6
20260506165814 15 208 4.8 8.0 0.05 0.33 0.33 94 1006.4
20260506165310 15 251 6.4 14.5 0.05 0.33 0.33 95 1006.3
20260506164807 15 95 1.6 8.0 0.00 0.33 0.33 95 1006.1